PDT,Max TemperatureF,Mean TemperatureF,Min TemperatureF,Max Dew PointF,MeanDew PointF,Min DewpointF,Max Humidity, Mean Humidity, Min Humidity, Max Sea Level PressureIn, Mean Sea Level PressureIn, Min Sea Level PressureIn, Max VisibilityMiles, Mean VisibilityMiles, Min VisibilityMiles, Max Wind SpeedMPH, Mean Wind SpeedMPH, Max Gust SpeedMPH,PrecipitationIn, CloudCover, Events, WindDirDegrees
2013-7-1,96,78,59,71,60,55,84,56,27,30.02,29.97,29.90,10,10,10,16,8,22,0.00,0,,17
2013-7-2,97,79,60,67,62,57,93,60,27,30.00,29.93,29.86,10,10,10,15,4,22,0.00,0,,202
2013-7-3,89,71,52,60,51,38,90,54,17,29.98,29.91,29.86,10,10,10,17,6,23,0.00,0,,194
2013-7-4,84,67,49,51,46,43,86,55,24,29.92,29.86,29.78,10,10,10,18,7,23,0.00,0,,180
2013-7-5,79,63,47,55,47,43,86,59,32,29.88,29.83,29.79,10,10,10,16,5,23,0.00,1,,193
2013-7-6,82,66,49,54,49,43,93,60,26,29.91,29.86,29.81,10,10,8,10,4,15,0.00,1,,296
2013-7-7,85,66,47,57,47,42,86,55,23,29.89,29.84,29.78,10,10,10,13,3,16,0.00,0,,335
2013-7-8,81,66,50,53,49,46,86,59,32,30.09,29.94,29.82,10,10,10,16,6,22,0.00,1,,344
2013-7-9,86,66,45,58,49,42,93,58,23,30.15,30.08,29.99,10,10,10,10,3,13,0.00,0,,359
2013-7-10,92,70,47,55,47,38,93,55,17,29.99,29.87,29.74,10,10,10,21,6,29,0.00,0,,209
2013-7-11,82,64,45,46,36,19,71,42,12,29.85,29.80,29.73,10,10,9,23,11,35,0.00,0,,206
2013-7-12,76,59,42,44,37,32,77,50,23,29.95,29.89,29.83,10,10,10,15,4,31,0.00,1,,305
2013-7-13,76,60,43,46,41,38,86,56,25,30.13,30.08,29.97,10,10,9,13,3,25,0.00,2,,212
2013-7-14,83,61,38,46,42,38,93,57,20,30.12,30.03,29.90,10,10,10,14,3,23,0.00,0,,144
2013-7-15,81,61,41,45,39,33,89,54,18,29.98,29.95,29.90,10,10,9,15,5,20,0.00,0,,303
2013-7-16,87,67,46,50,46,41,77,51,25,29.99,29.93,29.83,10,10,10,22,11,29,0.00,0,,25
2013-7-17,88,74,59,57,52,45,75,49,23,30.06,29.96,29.83,10,10,9,21,5,44,0.00,1,,359
2013-7-18,89,71,53,59,52,44,86,54,22,30.13,30.07,30.01,10,10,10,10,3,15,0.00,0,,350
2013-7-19,92,72,51,59,50,41,89,54,18,30.06,29.99,29.90,10,10,10,13,3,16,0.00,0,Rain,249
2013-7-20,94,70,46,53,42,28,86,48,10,29.93,29.86,29.76,10,10,10,18,4,24,0.00,0,,219
2013-7-21,91,68,45,50,43,37,71,44,17,29.85,29.79,29.73,10,10,10,16,4,,0.00,0,,185
2013-7-22,92,71,49,50,45,36,80,48,15,29.89,29.84,29.76,10,10,9,16,6,26,0.00,0,,176
2013-7-23,94,71,47,50,44,38,77,46,15,30.01,29.94,29.89,10,10,10,13,4,23,0.00,0,,172
2013-7-24,95,70,45,53,46,38,86,50,14,29.98,29.93,29.89,10,10,10,13,3,16,0.00,0,,161
2013-7-25,95,71,46,53,44,36,86,50,14,30.02,29.97,29.93,10,10,10,13,3,18,0.00,0,,193
2013-7-26,95,70,44,48,38,25,77,43,8,30.06,29.98,29.89,10,10,10,17,5,23,0.00,0,,191
2013-7-27,87,68,49,46,38,29,66,39,12,29.97,29.89,29.81,10,10,9,13,5,18,0.00,0,,168
2013-7-28,85,65,44,45,41,36,76,47,18,29.89,29.84,29.79,10,10,10,15,4,20,0.00,0,,166
2013-7-29,84,64,44,49,44,40,83,53,22,29.94,29.89,29.83,10,10,10,12,2,18,0.00,0,,238
2013-7-30,87,68,49,49,44,36,77,47,17,30.06,30.02,29.94,10,10,10,10,3,15,0.00,0,,11
2013-7-31,88,68,47,47,43,37,80,49,18,30.10,30.03,29.93,10,10,10,16,5,22,0.00,0,,10